La Palma > ESTACION METEOROLÓGICA Las Tricias - Garafia

DATOS ACTUALES Online

Ultima actulizacion 4 minutos

22.6 ºC

Temperatura

24

Humedad (%)

972.4

Presión (mb)

0

Precipitación (mm)

14.04 SW

Viento (Km/h)

DATOS DIARIOS

Temperatura últimas 24 horas (ºC)

Humedad últimas 24 horas (%)

Presión atmosférica últimas 24 horas (mb)

Precipitaciones últimas 23 horas (mm)

Viento últimas 24 horas (Km/h)

Hora Temperatura (°C) ºC Precipitación (mm) mm Presión (mb) mb Humedad (%) % Viento (Km/h) km/h
15 - 23:00 24.1 0 972 39 3.06 SW
16 - 00:00 21.6 0 972 35 3.06 SW
16 - 01:00 20.7 0 972 40 0 NE
16 - 02:00 21.2 0 972 39 0 NE
16 - 03:00 21.4 0 972 41 0 NE
16 - 04:00 19.7 0 972 41 6.3 NE
16 - 05:00 19.8 0 972 37 4.68 NE
16 - 06:00 20.7 0 972 31 0 NE
16 - 07:00 20.8 0 972 29 0 NE
16 - 08:00 22.3 0 972 29 0 NW
16 - 09:00 23.8 0 972 31 6.3 E
16 - 10:00 24.2 0 972 26 3.06 NE
16 - 11:00 25.9 0 972 35 3.06 SE
16 - 12:00 25.6 0 973 49 7.74 E
16 - 13:00 26.5 0 973 48 1.62 SE
16 - 14:00 25.9 0 973 50 1.62 SE
16 - 15:00 26.4 0 973 49 3.06 SE
16 - 16:00 26.4 0 973 40 6.3 NW
16 - 17:00 26.8 0 973 47 7.74 SE
16 - 18:00 25.8 0 973 43 6.3 S
16 - 19:00 24.2 0 973 43 3.06 W
16 - 20:00 23.1 0 973 23 17.28 SW
16 - 21:00 23.2 0 973 19 14.04 SW
16 - 22:00 23 0 972 22 7.74 SW
16 - 23:00 22.6 0 972 24 14.04 SW
Apalmet utiliza cookies propias y de terceros para mejorar la usabilidad y la experiencia web. Política de cookies.